Tracking 17631 objects as of 6-May-2016
HD Live streaming from Space Station
objects crossing your sky now

METEOSAT 9 (MSG 2)

Track METEOSAT 9 (MSG 2) now!
METEOSAT 9 (MSG 2) is classified as:


NORAD ID: 28912
Int'l Code: 2005-049B
Perigee: 35,784.2 km
Apogee: 35,799.9 km
Inclination: 1.4 °
Period: 1,436.0 minutes
Semi major axis: 42163 km
RCS: 2.0767 m2 (large)
Launch date: December 21, 2005
Source: European Organisation for the Exploitation of Meteorological Satellites (EUME)
Launch site: FRENCH GUIANA (FRGUI)
Your satellite tracking list
Your tracking list is empty





NASA's NSSDC Master Catalog

Two Line Element Set (TLE):
1 28912U 05049B   16126.53783229  .00000000  00000-0  10000-3 0  9999
2 28912   1.4203  67.5339 0001861 279.1340  80.5389  1.00277819 38020
Source of the keplerian elements: AFSPC

N2YO: 381